NOAA 16 DEB, 42335

Orbit data source: Space-Track

NOAA 16 DEB, 42335 is space debris in SSO originally from a launch on Thu, 21 Sep 2000 UTC launched from the Air Force Western Test Range (AFWTR). Debris objects in space refer to the collection of defunct objects orbiting the Earth. Examples of debris include non-operational satellites, rocket bodies, and fragments generated from explosions, collisions, or faulty payload assembly.

Loading next visibility...
NOAA 16 DEB details
Identifier
42335, 2000-055QB
Orbit
SSO
Last TLE update11 hours ago
Origin
Flag of USNOAA (US)
ManufacturerUnknown
MissionSpacecraft
Bus & MotorUnknown
MassUnknown
Launch date (UTC)
2000-09-21 (24 years ago)
Launch vehicleUnknown
Launch site
Air Force Western Test Range (AFWTR)
Object type
Payload
Rocket body
Debris
Shape & HBRUnknown
Radar Cross SectionSmall (<0.1 m²)

Expand to show TLE details & history

TLE from 11 hours ago
0 NOAA 16 DEB
1 42335U 00055QB  24361.37174786  .00009589  00000-0  37337-2 0  9992
2 42335  98.5956  54.3163 0025401 342.4738  17.5565 14.29765758456161
Epoch: 2024-12-26T08:55Z
Definitive object data (Epoch: 2024-12-26T08:55:19.015Z)
Latitude-0.00003°
Longitude-174.86502°
Altitude778.08 km
Speed7.474 km/s
True Right ascension03h 37m 15s
True Declination0° 00' 00"
Sunlit
Object was in full shadow at TLE epoch
Visualization TLE readout
Latitude81.33746°
Longitude86.2809°
Altitude812.175 km
Speed7.451 km/s
Apparent Right ascension06h 14m 00s
Apparent Declination36° 45' 44"
Sunlit
Object is in daylight
Visualization observer readout
Local Sidereal Time18:48:06
Azimuth6.998° NNE
Elevation-12.922°
Doppler factor1
Orbital elements
Apogee altitude807.861 km
Perigee altitude771.447 km
Semi-major axis7,167.791 km
Eccentricity0.0025401
Inclination98.5956°
RAAN54.3163°
Arg. of periapsis342.4738°
True anomaly17.64457°
Mean anomaly17.5565°
Eccentric anomaly17.60051°
Mean motion3.57656 °/min
BSTAR0.0037337
Orbital period100.66 mins
Loading maneuver chart data...
Loading historical data...
Loading historical data...
Loading historical data...
Loading historical data...
Loading historical data...
Loading historical data...
Loading historical data...

NOAA 16 DEB Visibility forecast

Observer location: undefined°, undefined

Span
Click to sort rows by Start time (UTC) header in descending order
Start Az.
Max El. time (UTC)
Max El. Az.
Max El.
End time (UTC)
End Az.
9 mins2024-12-27 03:30:27.273Z155.959° SSE2024-12-27 03:35:27.273Z54.494° ENE43.004°2024-12-27 03:39:27.273Z352.858° N
7 mins2024-12-27 15:45:27.273Z46.599° ENE2024-12-27 15:48:27.273Z89.361° E24.267°2024-12-27 15:52:27.273Z147.277° SSE
7 mins2024-12-27 17:25:27.273Z343.461° N2024-12-27 17:28:27.273Z287.516° WNW30.762°2024-12-27 17:32:27.273Z229.219° WSW
|